[[{"header":{"parameterUnit":"m.s-1","parameterCategory":1,"la1":30.2991,"la2":30.254,"lo1":-89.0895,"lo2":-89.0444,"dy":0.0017,"dx":0.0017,"nx":28,"ny":28,"refTime":"2023-10-29T09:00:00:Z","depth":0,"parameterNumber":2,"parameterNumberName":"U-component_of_WINDS"},"data":[0,0,0,0,0,0,0,0,0,0,0,0,0,0,0,0,0,0,0,0,0,0,0,0,0,0,0,0,0,0,0,0,0,0,0,0,0,0,0,0,0,0,0,0,0,0,0,0,0,0,0,0,0,0,0,0,0,0,-0.4641,-0.4641,0,-0.4653,-0.4653,-0.4653,-0.4632,-0.4631,-0.4631,-0.463,-0.4646,-0.4647,-0.4648,0,0,0,0,0,0,0,0,0,0,0,0,0,-0.4602,-0.4603,-0.4641,-0.4641,-0.4641,-0.4653,-0.4653,-0.4653,-0.4632,-0.4631,-0.463,-0.463,-0.4645,-0.4647,-0.4648,0,0,0,0,0,0,0,0,0,0,0,0,0,-0.4617,-0.4603,-0.4641,-0.4632,-0.4631,-0.4653,-0.4653,-0.4653,-0.4632,-0.4631,-0.463,-0.4629,-0.4645,-0.4646,-0.4648,-0.468,0,0,-0.4653,-0.4654,0,0,0,0,0,0,0,0,-0.4617,-0.4619,-0.4633,-0.4633,-0.4632,-0.464,-0.4645,-0.4662,-0.4633,-0.4632,-0.463,-0.4629,-0.4645,-0.4646,-0.4651,-0.4681,-0.4681,-0.4653,-0.4654,-0.4655,-0.4655,0,0,0,0,0,0,0,-0.4616,-0.4618,-0.4646,-0.4634,-0.4633,-0.4628,-0.4629,-0.4648,-0.4645,-0.4632,-0.4631,-0.4632,-0.4644,-0.465,-0.4651,-0.4682,-0.4653,-0.4655,-0.4656,-0.4656,-0.4738,-0.4739,0,0,0,0,0,0,-0.4615,-0.4617,-0.4646,-0.4646,-0.4621,-0.463,-0.4631,-0.4639,-0.4644,-0.4644,-0.4633,-0.4631,-0.4647,-0.4649,-0.4652,-0.469,-0.4655,-0.4656,-0.4657,-0.4736,-0.4738,-0.4739,0,0,0,0,0,0,-0.4614,-0.4618,-0.4645,-0.4631,-0.4635,-0.4632,-0.464,-0.4639,-0.4645,-0.4645,-0.4644,-0.4639,-0.4647,-0.465,-0.4673,-0.469,-0.4657,-0.4659,-0.4735,-0.4737,-0.4739,-0.4765,0,0,0,0,0,0,-0.4613,-0.4618,-0.4629,-0.4632,-0.4635,-0.4665,-0.4641,-0.464,-0.4647,-0.4645,-0.465,-0.465,-0.4646,-0.467,-0.4674,-0.4692,-0.466,-0.4734,-0.4736,-0.4738,-0.4763,-0.4768,-0.4772,0,0,0,0,0,-0.4612,-0.4637,-0.463,-0.4634,-0.465,-0.4666,-0.4668,-0.4662,-0.4649,-0.4661,-0.4661,-0.465,-0.4687,-0.4673,-0.4677,-0.4695,-0.4733,-0.4735,-0.4738,-0.4761,-0.4767,-0.4772,0,0,0,0,0,0,-0.4639,-0.4638,-0.463,-0.4656,-0.4661,-0.4663,-0.4678,-0.4668,-0.4678,-0.4676,-0.4668,-0.467,-0.4695,-0.4697,-0.4682,-0.4726,-0.4708,-0.4711,-0.4724,-0.473,-0.4734,-0.4733,-0.4661,0,0,0,0,0,-0.4647,-0.466,-0.4659,-0.4682,-0.4685,-0.4681,-0.4688,-0.4682,-0.4688,-0.469,-0.4692,-0.4699,-0.4712,-0.472,-0.4733,-0.4763,-0.4764,-0.4777,-0.4782,-0.4785,-0.4789,-0.4805,-0.4811,-0.4748,-0.4748,-0.4748,0,0,-0.4666,-0.4667,-0.4676,-0.4688,-0.4691,-0.4705,-0.4683,-0.4699,-0.471,-0.4693,-0.4715,-0.4716,-0.4723,-0.475,-0.4762,-0.4753,-0.4806,-0.4789,-0.4792,-0.4793,-0.4809,-0.4815,-0.482,-0.475,-0.4749,-0.4749,0,0,-0.4707,-0.4709,-0.4729,-0.4732,-0.4737,-0.4733,-0.4738,-0.474,-0.474,-0.4762,-0.4749,-0.4762,-0.4785,-0.479,-0.4796,-0.4837,-0.4828,-0.4841,-0.4866,-0.4881,-0.4886,-0.4891,-0.4906,-0.4912,-0.4845,-0.4845,-0.4845,0,-0.4731,-0.475,-0.4741,-0.4757,-0.4763,-0.4746,-0.4767,-0.4771,-0.478,-0.4784,-0.4773,-0.4801,-0.4804,-0.4832,-0.4842,-0.4847,-0.4853,-0.4841,-0.4886,-0.4891,-0.4895,-0.4909,-0.4915,-0.4846,-0.4846,-0.4846,-0.4846,0,-0.4779,-0.4792,-0.4808,-0.4815,-0.4823,-0.4841,-0.4835,-0.4843,-0.4836,-0.4834,-0.4857,-0.486,-0.4872,-0.4878,-0.4872,-0.4905,-0.4899,-0.4887,-0.4869,-0.4902,-0.4916,-0.4922,-0.4849,-0.4848,-0.4848,-0.4847,0,0,-0.4839,-0.4839,-0.4845,-0.4848,-0.4851,-0.4862,-0.488,-0.489,-0.4898,-0.4904,-0.4919,-0.4938,-0.4927,-0.4933,-0.4927,-0.4941,-0.4974,-0.4928,-0.4928,-0.4937,-0.5011,-0.5021,-0.5027,-0.4967,-0.4968,-0.4969,-0.5011,0,-0.4881,-0.4909,-0.49,-0.493,-0.4943,-0.4927,-0.4942,-0.4946,-0.4944,-0.4956,-0.4954,-0.4967,-0.4951,-0.4955,-0.4968,-0.4967,-0.4989,-0.4964,-0.4983,-0.4983,-0.4982,-0.5034,-0.5045,-0.5084,-0.5016,-0.5017,-0.5017,0,-0.4933,-0.494,-0.4971,-0.497,-0.4976,-0.4989,-0.4998,-0.5008,-0.5013,-0.501,-0.5017,-0.5008,-0.5026,-0.5006,-0.503,-0.5014,-0.502,-0.5021,-0.5023,-0.5025,-0.5003,-0.5039,-0.5096,-0.5102,-0.5026,-0.5025,-0.5024,0,-0.4975,-0.4992,-0.5012,-0.5015,-0.5015,-0.5025,-0.5026,-0.5029,-0.5036,-0.5043,-0.5048,-0.5058,-0.5064,-0.5072,-0.5066,-0.5052,-0.5092,-0.5072,-0.5092,-0.5092,-0.5102,-0.5102,-0.5162,-0.5105,-0.5105,-0.5104,-0.5104,0,-0.5023,-0.5043,-0.5031,-0.5043,-0.5065,-0.5054,-0.5076,-0.5075,-0.5077,-0.509,-0.5077,-0.5089,-0.508,-0.5092,-0.5088,-0.5109,-0.5112,-0.5111,-0.511,-0.5113,-0.5114,-0.5119,-0.5116,-0.5106,-0.5106,-0.5105,-0.5105,0,-0.5075,-0.5067,-0.5088,-0.5086,-0.5086,-0.5102,-0.51,-0.5112,-0.5109,-0.5125,-0.5128,-0.5123,-0.5136,-0.5131,-0.5145,-0.5142,-0.517,-0.5165,-0.5169,-0.5168,-0.5188,-0.5187,-0.5255,-0.5264,-0.52,-0.52,-0.5201,0,-0.5106,-0.5121,-0.5119,-0.5126,-0.5128,-0.5139,-0.5145,-0.5135,-0.5142,-0.5147,-0.5158,-0.517,-0.5179,-0.5201,-0.5199,-0.521,-0.5206,-0.5228,-0.5207,-0.521,-0.5207,-0.5207,-0.5208,-0.5233,-0.5234,-0.5235,-0.5235,0,-0.5164,-0.5159,-0.5168,-0.5175,-0.5182,-0.5188,-0.5192,-0.5199,-0.5189,-0.5197,-0.521,-0.5216,-0.523,-0.5242,-0.5251,-0.5253,-0.5243,-0.5241,-0.5247,-0.5251,-0.5253,-0.5253,-0.5181,-0.524,-0.524,-0.524,-0.5239,-0.5239,-0.5207,-0.5219,-0.522,-0.523,-0.5231,-0.5236,-0.5247,-0.5243,-0.5253,-0.5263,-0.5256,-0.5271,-0.5274,-0.5285,-0.5288,-0.53,-0.5291,-0.5299,-0.5301,-0.5303,-0.5306,-0.5249,-0.5301,-0.5301,-0.5301,-0.5301,-0.5301,0,-0.5265,-0.5264,-0.5273,-0.5279,-0.5287,-0.5274,-0.5278,-0.5286,-0.5299,-0.5301,-0.531,-0.5324,-0.5335,-0.5333,-0.5344,-0.5354,-0.5349,-0.5357,-0.5357,-0.5358,-0.5313,-0.5308,-0.536,-0.536,-0.536,-0.536,-0.536,-0.536,-0.5296,-0.5316,-0.531,-0.5331,-0.533,-0.5343,-0.5346,-0.535,-0.5352,-0.5368,-0.5377,-0.5375,-0.5376,-0.5386,-0.5396,-0.5395,-0.54,-0.541,-0.5408,-0.5367,-0.5361,-0.5355,-0.535,-0.5411,-0.5411,-0.5451,-0.5451,-0.5452]},{"header":{"parameterUnit":"m.s-1","parameterCategory":1,"la1":30.2991,"la2":30.254,"lo1":-89.0895,"lo2":-89.0444,"dy":0.0017,"dx":0.0017,"nx":28,"ny":28,"refTime":"2023-10-29T09:00:00:Z","depth":0,"parameterNumber":3,"parameterNumberName":"V-component_of_WINDS"},"data":[0,0,0,0,0,0,0,0,0,0,0,0,0,0,0,0,0,0,0,0,0,0,0,0,0,0,0,0,0,0,0,0,0,0,0,0,0,0,0,0,0,0,0,0,0,0,0,0,0,0,0,0,0,0,0,0,0,0,-0.4907,-0.4907,0,-0.4909,-0.4909,-0.4909,-0.4912,-0.4912,-0.4912,-0.4912,-0.4914,-0.4914,-0.4914,0,0,0,0,0,0,0,0,0,0,0,0,0,-0.4907,-0.4907,-0.4907,-0.4907,-0.4907,-0.4909,-0.4909,-0.4909,-0.4912,-0.4912,-0.4912,-0.4912,-0.4914,-0.4914,-0.4914,0,0,0,0,0,0,0,0,0,0,0,0,0,-0.4907,-0.4907,-0.4907,-0.4909,-0.4909,-0.4909,-0.4909,-0.4909,-0.4912,-0.4912,-0.4912,-0.4912,-0.4914,-0.4914,-0.4914,-0.4913,0,0,-0.4914,-0.4914,0,0,0,0,0,0,0,0,-0.4907,-0.4908,-0.4909,-0.4909,-0.4909,-0.491,-0.491,-0.491,-0.4912,-0.4911,-0.4912,-0.4912,-0.4913,-0.4913,-0.4913,-0.4913,-0.4913,-0.4914,-0.4914,-0.4914,-0.4914,0,0,0,0,0,0,0,-0.4907,-0.4907,-0.4908,-0.4909,-0.4909,-0.491,-0.491,-0.491,-0.4911,-0.4911,-0.4911,-0.4911,-0.4913,-0.4913,-0.4913,-0.4913,-0.4914,-0.4914,-0.4914,-0.4914,-0.4913,-0.4913,0,0,0,0,0,0,-0.4907,-0.4907,-0.4908,-0.4908,-0.4908,-0.491,-0.491,-0.491,-0.4911,-0.4912,-0.4911,-0.4911,-0.4913,-0.4913,-0.4913,-0.4913,-0.4914,-0.4914,-0.4914,-0.4913,-0.4913,-0.4913,0,0,0,0,0,0,-0.4907,-0.4907,-0.4908,-0.4908,-0.4908,-0.4909,-0.4909,-0.491,-0.491,-0.4911,-0.4912,-0.4911,-0.4913,-0.4913,-0.4913,-0.4913,-0.4914,-0.4914,-0.4913,-0.4913,-0.4913,-0.4911,0,0,0,0,0,0,-0.4907,-0.4907,-0.4906,-0.4908,-0.4908,-0.4908,-0.4909,-0.491,-0.491,-0.491,-0.4911,-0.4912,-0.4913,-0.4913,-0.4913,-0.4913,-0.4914,-0.4913,-0.4913,-0.4913,-0.4911,-0.4911,-0.4911,0,0,0,0,0,-0.4907,-0.4906,-0.4906,-0.4906,-0.4907,-0.4908,-0.4908,-0.4909,-0.491,-0.491,-0.4911,-0.4912,-0.4913,-0.4913,-0.4913,-0.4913,-0.4913,-0.4913,-0.4913,-0.4911,-0.4911,-0.4911,0,0,0,0,0,0,-0.4904,-0.4906,-0.4907,-0.4906,-0.4906,-0.4908,-0.4907,-0.4909,-0.4909,-0.4909,-0.4911,-0.4911,-0.4911,-0.4912,-0.4912,-0.4912,-0.4913,-0.4913,-0.4912,-0.4911,-0.4911,-0.4911,-0.4914,0,0,0,0,0,-0.4903,-0.4903,-0.4905,-0.4904,-0.4904,-0.4906,-0.4906,-0.4907,-0.4908,-0.4908,-0.4909,-0.491,-0.4911,-0.4911,-0.4912,-0.4911,-0.4912,-0.4911,-0.4911,-0.4911,-0.4911,-0.4911,-0.4911,-0.4913,-0.4913,-0.4913,0,0,-0.4902,-0.4903,-0.4902,-0.4903,-0.4904,-0.4904,-0.4906,-0.4906,-0.4906,-0.4908,-0.4908,-0.4909,-0.4911,-0.4911,-0.4911,-0.4911,-0.491,-0.4911,-0.4911,-0.4911,-0.4911,-0.4911,-0.4911,-0.4913,-0.4913,-0.4913,0,0,-0.4899,-0.4899,-0.4899,-0.49,-0.4901,-0.4902,-0.4902,-0.4904,-0.4904,-0.4905,-0.4906,-0.4907,-0.4908,-0.4909,-0.4909,-0.4908,-0.4909,-0.4908,-0.4907,-0.4907,-0.4907,-0.4907,-0.4907,-0.4907,-0.4908,-0.4908,-0.4908,0,-0.4897,-0.4897,-0.4899,-0.4899,-0.4899,-0.4901,-0.4901,-0.4902,-0.4903,-0.4904,-0.4904,-0.4906,-0.4907,-0.4907,-0.4907,-0.4907,-0.4908,-0.4908,-0.4907,-0.4907,-0.4907,-0.4907,-0.4907,-0.4908,-0.4908,-0.4908,-0.4908,0,-0.4895,-0.4895,-0.4894,-0.4896,-0.4896,-0.4896,-0.4898,-0.4899,-0.49,-0.4901,-0.4902,-0.4903,-0.4904,-0.4904,-0.4905,-0.4905,-0.4906,-0.4907,-0.4908,-0.4907,-0.4906,-0.4906,-0.4908,-0.4908,-0.4908,-0.4908,0,0,-0.4889,-0.4892,-0.4892,-0.4893,-0.4895,-0.4895,-0.4896,-0.4897,-0.4898,-0.4899,-0.4899,-0.49,-0.4901,-0.4902,-0.4903,-0.4904,-0.4903,-0.4905,-0.4905,-0.4905,-0.4904,-0.4903,-0.4903,-0.4904,-0.4904,-0.4904,-0.4904,0,-0.4887,-0.4888,-0.489,-0.489,-0.489,-0.4893,-0.4893,-0.4895,-0.4896,-0.4897,-0.4898,-0.4899,-0.49,-0.4901,-0.4902,-0.4903,-0.4903,-0.4903,-0.4905,-0.4905,-0.4905,-0.4903,-0.4902,-0.4902,-0.4904,-0.4904,-0.4904,0,-0.4884,-0.4886,-0.4886,-0.4889,-0.4889,-0.4889,-0.4891,-0.4892,-0.4893,-0.4895,-0.4896,-0.4897,-0.4898,-0.4899,-0.4901,-0.4901,-0.4902,-0.4903,-0.4903,-0.4903,-0.4904,-0.4903,-0.4901,-0.4901,-0.4904,-0.4904,-0.4904,0,-0.4881,-0.4883,-0.4883,-0.4884,-0.4887,-0.4887,-0.4889,-0.4891,-0.4891,-0.4893,-0.4894,-0.4895,-0.4896,-0.4898,-0.49,-0.49,-0.4901,-0.4902,-0.4902,-0.4902,-0.4902,-0.4902,-0.4901,-0.4903,-0.4903,-0.4903,-0.4903,0,-0.4879,-0.4879,-0.4882,-0.4882,-0.4883,-0.4885,-0.4886,-0.4887,-0.4889,-0.489,-0.4892,-0.4893,-0.4896,-0.4897,-0.4899,-0.49,-0.4901,-0.4902,-0.4902,-0.4902,-0.4901,-0.4902,-0.4902,-0.4903,-0.4903,-0.4903,-0.4903,0,-0.4875,-0.4877,-0.4878,-0.4881,-0.4882,-0.4882,-0.4884,-0.4885,-0.4887,-0.4888,-0.4889,-0.4891,-0.4893,-0.4895,-0.4898,-0.4899,-0.49,-0.4901,-0.49,-0.49,-0.49,-0.49,-0.4899,-0.4899,-0.4901,-0.4901,-0.4901,0,-0.4873,-0.4873,-0.4876,-0.4877,-0.4878,-0.488,-0.4881,-0.4883,-0.4884,-0.4887,-0.4888,-0.4889,-0.4891,-0.4894,-0.4896,-0.4898,-0.4899,-0.4899,-0.4899,-0.4899,-0.49,-0.49,-0.49,-0.4898,-0.4898,-0.4898,-0.4898,0,-0.487,-0.4871,-0.4872,-0.4874,-0.4876,-0.4877,-0.4879,-0.488,-0.4883,-0.4884,-0.4886,-0.4887,-0.489,-0.4892,-0.4895,-0.4896,-0.4898,-0.4898,-0.4898,-0.4898,-0.4897,-0.4898,-0.4899,-0.4898,-0.4898,-0.4898,-0.4898,-0.4898,-0.4867,-0.4868,-0.487,-0.4872,-0.4874,-0.4875,-0.4876,-0.4878,-0.488,-0.4883,-0.4884,-0.4886,-0.4889,-0.4892,-0.4894,-0.4896,-0.4896,-0.4896,-0.4896,-0.4896,-0.4896,-0.4897,-0.4896,-0.4896,-0.4896,-0.4896,-0.4896,0,-0.4864,-0.4866,-0.4868,-0.487,-0.4872,-0.4873,-0.4876,-0.4877,-0.4879,-0.4881,-0.4883,-0.4885,-0.4887,-0.489,-0.4893,-0.4894,-0.4895,-0.4894,-0.4894,-0.4895,-0.4896,-0.4895,-0.4894,-0.4894,-0.4894,-0.4894,-0.4894,-0.4894,-0.4863,-0.4864,-0.4866,-0.4868,-0.487,-0.4872,-0.4873,-0.4875,-0.4877,-0.488,-0.4882,-0.4884,-0.4886,-0.4889,-0.4891,-0.4892,-0.4893,-0.4893,-0.4894,-0.4894,-0.4895,-0.4895,-0.4895,-0.4893,-0.4893,-0.4893,-0.4893,-0.4893]}]]